Time,TemperatureF,DewpointF,PressureIn,WindDirection,WindDirectionDegrees,WindSpeedMPH,WindSpeedGustMPH,Humidity,HourlyPrecipIn,Conditions,Clouds,dailyrainin,SolarRadiationWatts/m^2,SoftwareType,DateUTC
2013-02-05 00:04:00,44.7,43.0,30.10,WSW,240,0.0,3.0,95,0.00,,,0.00,0,weatherlink.com 1.10,2013-02-05 08:04:00,
2013-02-05 00:19:00,44.5,43.0,30.10,WSW,240,1.0,1.0,95,0.00,,,0.00,0,weatherlink.com 1.10,2013-02-05 08:19:00,
2013-02-05 00:34:00,44.6,43.0,30.10,WSW,240,0.0,0.0,95,0.00,,,0.00,0,weatherlink.com 1.10,2013-02-05 08:34:00,
2013-02-05 00:49:00,44.7,43.0,30.10,WSW,240,1.0,1.0,95,0.00,,,0.00,0,weatherlink.com 1.10,2013-02-05 08:49:00,
2013-02-05 01:04:00,44.8,44.0,30.10,WSW,240,0.0,0.0,95,0.00,,,0.00,0,weatherlink.com 1.10,2013-02-05 09:04:00,
2013-02-05 01:19:00,44.8,44.0,30.09,SSW,198,2.0,3.0,95,0.00,,,0.00,0,weatherlink.com 1.10,2013-02-05 09:19:00,
2013-02-05 01:34:00,44.8,44.0,30.09,SSW,198,0.0,1.0,95,0.01,,,0.01,0,weatherlink.com 1.10,2013-02-05 09:34:00,
2013-02-05 01:49:00,44.8,44.0,30.10,SSW,198,0.0,0.0,95,0.01,,,0.01,0,weatherlink.com 1.10,2013-02-05 09:49:00,
2013-02-05 02:04:00,44.9,44.0,30.09,SSW,198,0.0,1.0,95,0.01,,,0.01,0,weatherlink.com 1.10,2013-02-05 10:04:00,
2013-02-05 02:19:00,44.7,43.0,30.09,SSW,198,0.0,0.0,95,0.01,,,0.01,0,weatherlink.com 1.10,2013-02-05 10:19:00,
2013-02-05 02:34:00,44.8,44.0,30.09,SSW,198,0.0,0.0,95,0.00,,,0.01,0,weatherlink.com 1.10,2013-02-05 10:34:00,
2013-02-05 02:49:00,44.8,44.0,30.08,SSW,198,0.0,0.0,95,0.00,,,0.01,0,weatherlink.com 1.10,2013-02-05 10:49:00,
2013-02-05 03:04:00,44.8,44.0,30.08,SSW,198,0.0,0.0,95,0.00,,,0.01,0,weatherlink.com 1.10,2013-02-05 11:04:00,
2013-02-05 03:19:00,44.7,43.0,30.07,SSW,198,0.0,0.0,95,0.00,,,0.01,0,weatherlink.com 1.10,2013-02-05 11:19:00,
2013-02-05 03:34:00,44.8,44.0,30.08,SSW,198,0.0,0.0,95,0.00,,,0.01,0,weatherlink.com 1.10,2013-02-05 11:34:00,
2013-02-05 03:49:00,44.8,44.0,30.08,SSW,198,0.0,1.0,95,0.00,,,0.01,0,weatherlink.com 1.10,2013-02-05 11:49:00,
2013-02-05 04:04:00,44.8,44.0,30.08,SSW,198,0.0,0.0,95,0.00,,,0.01,0,weatherlink.com 1.10,2013-02-05 12:04:00,
2013-02-05 04:20:00,44.8,44.0,30.08,SSW,198,0.0,0.0,95,0.00,,,0.01,0,weatherlink.com 1.10,2013-02-05 12:20:00,
2013-02-05 04:35:00,44.8,44.0,30.08,ENE,64,0.0,3.0,95,0.00,,,0.01,0,weatherlink.com 1.10,2013-02-05 12:35:00,
2013-02-05 04:49:00,44.7,43.0,30.07,ENE,64,0.0,0.0,95,0.00,,,0.01,0,weatherlink.com 1.10,2013-02-05 12:49:00,
2013-02-05 05:05:00,44.7,43.0,30.07,ENE,64,0.0,0.0,95,0.00,,,0.01,0,weatherlink.com 1.10,2013-02-05 13:05:00,
2013-02-05 05:19:00,44.7,43.0,30.07,ENE,64,0.0,0.0,95,0.00,,,0.01,0,weatherlink.com 1.10,2013-02-05 13:19:00,
2013-02-05 05:35:00,44.7,43.0,30.07,ENE,64,0.0,0.0,95,0.00,,,0.01,0,weatherlink.com 1.10,2013-02-05 13:35:00,
2013-02-05 05:49:00,44.7,43.0,30.07,ENE,64,0.0,0.0,95,0.00,,,0.01,0,weatherlink.com 1.10,2013-02-05 13:49:00,
2013-02-05 06:05:00,44.7,43.0,30.07,ENE,64,0.0,0.0,95,0.00,,,0.01,0,weatherlink.com 1.10,2013-02-05 14:05:00,
2013-02-05 06:19:00,44.7,43.0,30.07,ENE,64,0.0,1.0,95,0.00,,,0.01,0,weatherlink.com 1.10,2013-02-05 14:19:00,
2013-02-05 06:34:00,44.7,43.0,30.08,ENE,64,0.0,1.0,95,0.00,,,0.01,0,weatherlink.com 1.10,2013-02-05 14:34:00,
2013-02-05 06:49:00,44.7,43.0,30.08,ENE,64,0.0,0.0,95,0.01,,,0.02,0,weatherlink.com 1.10,2013-02-05 14:49:00,
2013-02-05 07:04:00,44.7,43.0,30.09,ENE,65,0.0,1.0,95,0.01,,,0.02,0,weatherlink.com 1.10,2013-02-05 15:04:00,
2013-02-05 07:19:00,44.8,44.0,30.09,ENE,65,0.0,0.0,95,0.01,,,0.02,0,weatherlink.com 1.10,2013-02-05 15:19:00,
2013-02-05 07:34:00,44.8,44.0,30.08,ENE,65,0.0,0.0,95,0.01,,,0.02,7,weatherlink.com 1.10,2013-02-05 15:34:00,
2013-02-05 07:49:00,44.9,44.0,30.09,ENE,67,0.0,0.0,95,0.00,,,0.02,19,weatherlink.com 1.10,2013-02-05 15:49:00,
2013-02-05 08:05:00,44.9,44.0,30.09,ENE,67,0.0,0.0,95,0.00,,,0.02,35,weatherlink.com 1.10,2013-02-05 16:05:00,
2013-02-05 08:20:00,45.3,44.0,30.09,ESE,121,0.0,1.0,95,0.00,,,0.02,88,weatherlink.com 1.10,2013-02-05 16:20:00,
2013-02-05 08:35:00,45.5,44.0,30.10,South,175,2.0,3.0,95,0.00,,,0.02,139,weatherlink.com 1.10,2013-02-05 16:35:00,
2013-02-05 08:50:00,46.2,45.0,30.09,South,175,0.0,1.0,95,0.00,,,0.02,135,weatherlink.com 1.10,2013-02-05 16:50:00,
2013-02-05 09:05:00,46.3,45.0,30.10,South,175,0.0,0.0,95,0.00,,,0.02,167,weatherlink.com 1.10,2013-02-05 17:05:00,
2013-02-05 09:20:00,46.9,46.0,30.10,South,175,0.0,0.0,95,0.00,,,0.02,179,weatherlink.com 1.10,2013-02-05 17:20:00,
2013-02-05 09:35:00,48.0,46.0,30.10,East,89,0.0,0.0,93,0.00,,,0.02,200,weatherlink.com 1.10,2013-02-05 17:35:00,
2013-02-05 09:50:00,48.9,46.0,30.10,East,89,0.0,1.0,91,0.00,,,0.02,258,weatherlink.com 1.10,2013-02-05 17:50:00,
2013-02-05 10:05:00,49.5,46.0,30.10,SSE,148,0.0,2.0,89,0.00,,,0.02,199,weatherlink.com 1.10,2013-02-05 18:05:00,
2013-02-05 10:20:00,49.8,47.0,30.11,SSE,148,0.0,1.0,89,0.00,,,0.02,204,weatherlink.com 1.10,2013-02-05 18:20:00,
2013-02-05 10:35:00,50.2,47.0,30.11,SSE,148,0.0,1.0,88,0.00,,,0.02,257,weatherlink.com 1.10,2013-02-05 18:35:00,
2013-02-05 10:50:00,51.0,47.0,30.11,SW,217,1.0,5.0,85,0.00,,,0.02,371,weatherlink.com 1.10,2013-02-05 18:50:00,
2013-02-05 11:05:00,52.4,48.0,30.11,NW,309,2.0,5.0,85,0.00,,,0.02,457,weatherlink.com 1.10,2013-02-05 19:05:00,
2013-02-05 11:21:00,53.5,48.0,30.10,SE,134,0.0,6.0,81,0.00,,,0.02,504,weatherlink.com 1.10,2013-02-05 19:21:00,
2013-02-05 11:36:00,53.7,47.0,30.09,NW,321,4.0,9.0,79,0.00,,,0.02,454,weatherlink.com 1.10,2013-02-05 19:36:00,
2013-02-05 11:51:00,55.0,49.0,30.09,WNW,284,0.0,11.0,79,0.00,,,0.02,610,weatherlink.com 1.10,2013-02-05 19:51:00,
2013-02-05 12:05:00,55.9,49.0,30.08,SW,219,6.0,8.0,78,0.00,,,0.02,555,weatherlink.com 1.10,2013-02-05 20:05:00,
2013-02-05 12:21:00,56.5,49.0,30.08,WNW,294,2.0,10.0,76,0.00,,,0.02,666,weatherlink.com 1.10,2013-02-05 20:21:00,
2013-02-05 12:35:00,56.5,49.0,30.07,West,261,7.0,10.0,75,0.00,,,0.02,436,weatherlink.com 1.10,2013-02-05 20:35:00,
2013-02-05 12:50:00,56.9,49.0,30.07,West,271,4.0,10.0,75,0.00,,,0.02,622,weatherlink.com 1.10,2013-02-05 20:50:00,
2013-02-05 13:06:00,56.6,49.0,30.06,SW,221,7.0,10.0,76,0.00,,,0.02,606,weatherlink.com 1.10,2013-02-05 21:06:00,
2013-02-05 13:20:00,57.3,49.0,30.06,SW,223,7.0,14.0,74,0.00,,,0.02,619,weatherlink.com 1.10,2013-02-05 21:20:00,
2013-02-05 13:36:00,57.6,49.0,30.05,West,259,7.0,15.0,74,0.00,,,0.02,594,weatherlink.com 1.10,2013-02-05 21:36:00,
2013-02-05 13:51:00,58.2,50.0,30.05,West,268,5.0,13.0,74,0.00,,,0.02,582,weatherlink.com 1.10,2013-02-05 21:51:00,
2013-02-05 14:06:00,58.8,49.0,30.05,West,259,8.0,13.0,71,0.00,,,0.02,555,weatherlink.com 1.10,2013-02-05 22:06:00,
2013-02-05 14:21:00,59.4,49.0,30.05,WSW,257,14.0,17.0,69,0.00,,,0.02,531,weatherlink.com 1.10,2013-02-05 22:21:00,
2013-02-05 14:36:00,58.9,49.0,30.05,SW,229,5.0,14.0,70,0.00,,,0.02,503,weatherlink.com 1.10,2013-02-05 22:36:00,
2013-02-05 14:51:00,58.9,49.0,30.05,WNW,290,5.0,12.0,70,0.00,,,0.02,473,weatherlink.com 1.10,2013-02-05 22:51:00,
2013-02-05 15:06:00,58.3,49.0,30.05,WSW,242,5.0,14.0,71,0.00,,,0.02,448,weatherlink.com 1.10,2013-02-05 23:06:00,
2013-02-05 15:21:00,58.3,49.0,30.06,WNW,295,4.0,15.0,71,0.00,,,0.02,406,weatherlink.com 1.10,2013-02-05 23:21:00,
2013-02-05 15:36:00,57.7,49.0,30.06,SSW,213,6.0,12.0,72,0.00,,,0.02,374,weatherlink.com 1.10,2013-02-05 23:36:00,
2013-02-05 15:51:00,57.3,49.0,30.06,West,271,6.0,15.0,73,0.00,,,0.02,311,weatherlink.com 1.10,2013-02-05 23:51:00,
2013-02-05 16:06:00,57.6,49.0,30.07,West,261,2.0,9.0,72,0.00,,,0.02,267,weatherlink.com 1.10,2013-02-06 00:06:00,
2013-02-05 16:21:00,57.1,49.0,30.07,WSW,252,4.0,8.0,74,0.00,,,0.02,209,weatherlink.com 1.10,2013-02-06 00:21:00,
2013-02-05 16:36:00,55.8,49.0,30.07,WSW,253,4.0,8.0,77,0.00,,,0.02,151,weatherlink.com 1.10,2013-02-06 00:36:00,
2013-02-05 16:51:00,55.1,49.0,30.07,WSW,257,4.0,10.0,79,0.00,,,0.02,98,weatherlink.com 1.10,2013-02-06 00:51:00,
2013-02-05 17:06:00,54.1,48.0,30.07,West,261,9.0,10.0,80,0.00,,,0.02,51,weatherlink.com 1.10,2013-02-06 01:06:00,
2013-02-05 17:21:00,52.9,47.0,30.07,WNW,283,5.0,11.0,81,0.00,,,0.02,12,weatherlink.com 1.10,2013-02-06 01:21:00,
2013-02-05 17:36:00,52.5,47.0,30.07,WSW,257,4.0,10.0,82,0.00,,,0.02,5,weatherlink.com 1.10,2013-02-06 01:36:00,
2013-02-05 17:51:00,52.1,47.0,30.08,West,263,3.0,9.0,82,0.00,,,0.02,0,weatherlink.com 1.10,2013-02-06 01:51:00,
2013-02-05 18:06:00,51.4,46.0,30.08,WSW,250,0.0,4.0,83,0.00,,,0.02,0,weatherlink.com 1.10,2013-02-06 02:06:00,
2013-02-05 18:21:00,50.8,46.0,30.08,WSW,246,1.0,5.0,84,0.00,,,0.02,0,weatherlink.com 1.10,2013-02-06 02:21:00,
2013-02-05 18:36:00,50.5,46.0,30.09,SW,234,0.0,6.0,84,0.00,,,0.02,0,weatherlink.com 1.10,2013-02-06 02:36:00,
2013-02-05 18:51:00,50.1,46.0,30.09,West,265,0.0,5.0,84,0.00,,,0.02,0,weatherlink.com 1.10,2013-02-06 02:51:00,
2013-02-05 19:06:00,49.8,45.0,30.10,SW,217,1.0,4.0,84,0.00,,,0.02,0,weatherlink.com 1.10,2013-02-06 03:06:00,
2013-02-05 19:21:00,49.4,44.0,30.11,SW,217,0.0,3.0,83,0.00,,,0.02,0,weatherlink.com 1.10,2013-02-06 03:21:00,
2013-02-05 19:36:00,47.8,44.0,30.12,SW,217,0.0,3.0,85,0.00,,,0.02,0,weatherlink.com 1.10,2013-02-06 03:36:00,
2013-02-05 19:51:00,46.9,43.0,30.12,SW,217,0.0,2.0,86,0.00,,,0.02,0,weatherlink.com 1.10,2013-02-06 03:51:00,
2013-02-05 20:06:00,47.3,43.0,30.12,SW,217,3.0,3.0,84,0.00,,,0.02,0,weatherlink.com 1.10,2013-02-06 04:06:00,
2013-02-05 20:21:00,48.1,42.0,30.12,SW,234,3.0,6.0,80,0.00,,,0.02,0,weatherlink.com 1.10,2013-02-06 04:21:00,
2013-02-05 20:36:00,48.1,42.0,30.11,WSW,240,3.0,8.0,79,0.00,,,0.02,0,weatherlink.com 1.10,2013-02-06 04:36:00,
2013-02-05 20:51:00,48.8,42.0,30.12,West,270,8.0,10.0,77,0.00,,,0.02,0,weatherlink.com 1.10,2013-02-06 04:51:00,
2013-02-05 21:06:00,49.0,42.0,30.12,WSW,253,3.0,9.0,76,0.00,,,0.02,0,weatherlink.com 1.10,2013-02-06 05:06:00,
2013-02-05 21:21:00,48.4,42.0,30.13,West,269,1.0,7.0,77,0.00,,,0.02,0,weatherlink.com 1.10,2013-02-06 05:21:00,
2013-02-05 21:36:00,47.9,41.0,30.14,NE,47,1.0,4.0,78,0.00,,,0.02,0,weatherlink.com 1.10,2013-02-06 05:36:00,
2013-02-05 21:51:00,47.3,41.0,30.14,NW,315,0.0,7.0,79,0.00,,,0.02,0,weatherlink.com 1.10,2013-02-06 05:51:00,
2013-02-05 22:06:00,46.6,41.0,30.14,NW,307,0.0,1.0,80,0.00,,,0.02,0,weatherlink.com 1.10,2013-02-06 06:06:00,
2013-02-05 22:21:00,45.4,41.0,30.14,WSW,251,2.0,5.0,84,0.00,,,0.02,0,weatherlink.com 1.10,2013-02-06 06:21:00,
2013-02-05 22:36:00,45.9,41.0,30.14,West,273,5.0,7.0,83,0.00,,,0.02,0,weatherlink.com 1.10,2013-02-06 06:36:00,
2013-02-05 22:51:00,46.5,41.0,30.15,WNW,286,1.0,7.0,82,0.00,,,0.02,0,weatherlink.com 1.10,2013-02-06 06:51:00,
2013-02-05 23:06:00,46.8,41.0,30.15,West,278,0.0,8.0,80,0.00,,,0.02,0,weatherlink.com 1.10,2013-02-06 07:06:00,
2013-02-05 23:21:00,46.9,41.0,30.15,NW,304,0.0,7.0,80,0.00,,,0.02,0,weatherlink.com 1.10,2013-02-06 07:21:00,
2013-02-05 23:36:00,46.9,41.0,30.16,WNW,303,0.0,4.0,80,0.00,,,0.02,0,weatherlink.com 1.10,2013-02-06 07:36:00,
2013-02-05 23:51:00,46.4,41.0,30.15,WNW,303,0.0,2.0,80,0.00,,,0.02,0,weatherlink.com 1.10,2013-02-06 07:51:00,